Terminal Aerodrome Forecast
Issued by NWS Wakefield, VA

Home | Current Version | Previous Version | Text Only | Print | Product List | Glossary On
Versions: 1 2 3 4 5 6 7 8 9 10 11 12 13 14 15
000
FTUS41 KAKQ 270903 AAA
TAFSBY
TAF AMD
KSBY 270903Z 2709/2806 35012G20KT P6SM OVC014
     FM271200 35010KT 4SM -RA BR OVC012
     FM272000 33010KT P6SM BKN020
     FM280000 31012KT P6SM BKN040=

USA.gov is the U.S. government's official web portal to all federal, state and local government web resources and services.